FW0386 Weather Reports


Display with metric or nautical units.
time (UTC)temp
F
wind
direction
speed
MPH
gust
MPH
rain 1hr
in
rain 24hr
in
rain mn
in
humidity
%
barometer
mb
20260901041529 58 276 1.0 5.0 0.00 0.03 0.00 79 1018.8
20260901040048 58 272 1.0 7.0 0.00 0.03 0.00 79 1018.7
20260901034602 59 293 2.0 5.0 0.00 0.03 0.00 78 1018.6
20260901033010 59 283 1.0 5.0 0.00 0.03 0.00 78 1018.5
20260901031523 59 266 1.0 8.0 0.00 0.03 0.00 77 1018.5
20260901030042 59 279 2.0 7.0 0.00 0.03 0.00 76 1018.6
20260901024546 59 278 1.0 6.0 0.00 0.03 0.00 76 1018.6
20260901023013 59 289 1.0 6.0 0.00 0.03 0.00 75 1018.5
20260901021502 60 271 2.0 7.0 0.00 0.03 0.00 75 1018.3
20260901020130 60 285 2.0 7.0 0.00 0.03 0.00 74 1018.4
20260901014506 60 226 1.0 4.0 0.00 0.03 0.00 73 1018.3
20260901013007 61 264 1.0 5.0 0.00 0.03 0.00 72 1018.3
20260901011542 61 268 1.0 5.0 0.00 0.03 0.00 72 1018.3
20260901010045 61 276 1.0 6.0 0.00 0.03 0.00 71 1018.2
20260901004501 61 259 1.0 5.0 0.00 0.03 0.00 72 1018.0
20260901003015 61 291 2.0 6.0 0.00 0.03 0.00 72 1017.9
20260901001546 61 283 1.0 6.0 0.00 0.03 0.00 74 1017.9
20260901000027 59 250 0.0 2.0 0.00 0.03 0.00 78 1018.1
20260831234615 59 256 0.0 0.0 0.00 0.03 0.00 79 1018.1
20260831233014 59 256 0.0 0.0 0.00 0.03 0.00 78 1018.1
20260831231531 60 256 0.0 1.0 0.00 0.03 0.00 76 1018.1
20260831230036 60 256 0.0 0.0 0.00 0.03 0.00 76 1018.2
20260831224522 61 256 0.0 0.0 0.00 0.03 0.00 74 1018.1
20260831223036 62 256 0.0 1.0 0.00 0.03 0.00 73 1018.2
20260831221602 63 259 0.0 1.0 0.00 0.03 0.00 72 1018.2
20260831220111 63 240 0.0 3.0 0.00 0.03 0.00 72 1018.2
20260831214516 63 259 0.0 1.0 0.00 0.03 0.03 73 1018.0
20260831213008 63 259 0.0 1.0 0.00 0.03 0.03 74 1017.7
20260831211526 63 272 0.0 1.0 0.00 0.03 0.03 74 1017.7
20260831210051 62 248 0.0 3.0 0.00 0.03 0.03 74 1017.8
20260831204531 61 197 0.0 0.0 0.00 0.03 0.03 78 1017.5
20260831203051 60 262 0.0 0.0 0.00 0.03 0.03 80 1017.2
20260831201506 61 263 0.0 0.0 0.00 0.03 0.03 77 1016.9
20260831200024 61 263 0.0 1.0 0.00 0.03 0.03 75 1016.6
20260831194535 62 263 0.0 0.0 0.00 0.03 0.03 75 1016.6
20260831193059 63 263 0.0 0.0 0.00 0.03 0.03 74 1016.3
20260831191512 63 263 0.0 0.0 0.00 0.03 0.03 71 1016.1
20260831190043 64 263 0.0 0.0 0.00 0.03 0.03 71 1016.2
20260831184527 64 263 0.0 0.0 0.00 0.03 0.03 70 1016.0
20260831183059 65 263 0.0 0.0 0.00 0.03 0.03 69 1015.9
20260831181541 67 263 0.0 1.0 0.00 0.03 0.03 66 1015.5
20260831180052 68 263 0.0 0.0 0.00 0.03 0.03 63 1015.3
20260831174607 70 263 0.0 1.0 0.00 0.03 0.03 61 1015.2
20260831173009 71 264 0.0 1.0 0.00 0.03 0.03 59 1015.1
20260831171522 73 271 0.0 3.0 0.00 0.03 0.03 56 1015.0
20260831170037 75 252 0.0 3.0 0.00 0.03 0.03 53 1015.0
20260831164540 75 263 1.0 6.0 0.00 0.03 0.03 51 1015.1
20260831163003 76 295 0.0 9.0 0.00 0.03 0.03 51 1014.9
20260831161525 77 319 2.0 9.0 0.00 0.03 0.03 50 1014.8
20260831160032 77 332 1.0 9.0 0.00 0.03 0.03 49 1014.9
20260831154602 77 153 1.0 10.0 0.00 0.03 0.03 50 1015.0
20260831153031 79 236 2.0 7.0 0.00 0.03 0.03 48 1015.0
20260831151504 78 70 0.0 8.0 0.00 0.03 0.03 49 1015.2
20260831150034 78 234 3.0 8.0 0.00 0.03 0.03 49 1015.3
20260831144630 77 273 3.0 12.0 0.00 0.03 0.03 51 1015.3
20260831143043 78 284 2.0 10.0 0.00 0.03 0.03 52 1015.2
20260831141554 78 295 3.0 11.0 0.00 0.03 0.03 51 1015.1
20260831140002 78 286 2.0 12.0 0.00 0.03 0.03 52 1015.0
20260831134520 77 247 4.0 9.0 0.00 0.03 0.03 53 1015.0
20260831133030 78 297 3.0 10.0 0.00 0.03 0.03 54 1015.0
20260831131547 79 250 1.0 11.0 0.00 0.03 0.03 55 1015.0
20260831130115 78 292 3.0 9.0 0.00 0.03 0.03 57 1015.1
20260831124517 77 260 4.0 10.0 0.00 0.03 0.03 58 1015.0
20260831123020 78 222 4.0 8.0 0.00 0.03 0.03 57 1015.1
20260831121542 78 290 4.0 14.0 0.00 0.03 0.03 57 1014.9
20260831120021 78 240 3.0 11.0 0.00 0.03 0.03 58 1014.9
20260831114535 77 233 4.0 10.0 0.00 0.03 0.03 59 1015.0
20260831113048 78 333 2.0 15.0 0.00 0.03 0.03 59 1015.0
20260831111611 77 133 3.0 12.0 0.00 0.03 0.03 59 1015.1
20260831110022 77 332 4.0 10.0 0.00 0.03 0.03 59 1015.2
20260831104524 76 320 2.0 12.0 0.00 0.03 0.03 62 1015.2
20260831103049 75 219 6.0 11.0 0.00 0.03 0.03 62 1015.3
20260831101555 75 236 3.0 10.0 0.00 0.03 0.03 65 1015.2
20260831100056 73 224 3.0 10.0 0.00 0.03 0.03 68 1015.2
20260831094602 71 256 1.0 8.0 0.00 0.03 0.03 71 1015.4
20260831093015 71 240 1.0 7.0 0.00 0.03 0.03 72 1015.3
20260831091519 72 248 1.0 7.0 0.00 0.03 0.03 71 1015.3
20260831090048 72 11 2.0 12.0 0.00 0.03 0.03 70 1015.3
20260831084505 72 224 2.0 9.0 0.00 0.03 0.03 71 1015.2
20260831083028 73 198 2.0 12.0 0.00 0.03 0.03 69 1014.7
20260831081632 73 215 0.0 5.0 0.00 0.03 0.03 73 1014.5
20260831080011 70 166 0.0 4.0 0.01 0.03 0.03 76 1014.7
20260831074539 67 237 1.0 3.0 0.01 0.03 0.03 83 1014.7
20260831073156 65 271 0.0 1.0 0.02 0.03 0.03 86 1014.9
20260831071559 64 240 1.0 4.0 0.01 0.02 0.02 88 1014.7
20260831070010 63 205 0.0 1.0 0.01 0.02 0.02 91 1014.5
20260831064532 62 125 0.0 0.0 0.01 0.02 0.02 92 1014.4
20260831063049 62 125 0.0 0.0 0.00 0.02 0.02 92 1014.5
20260831061505 62 125 0.0 1.0 0.00 0.02 0.02 92 1014.4
20260831060022 61 171 0.0 0.0 0.00 0.02 0.02 92 1014.1
20260831054541 61 171 0.0 0.0 0.00 0.02 0.02 92 1014.0
20260831053024 61 184 0.0 0.0 0.01 0.02 0.02 92 1014.1
20260831051543 61 186 0.0 0.0 0.02 0.02 0.02 92 1014.3
20260831050139 61 203 0.0 0.0 0.02 0.02 0.02 92 1014.5
20260831044515 61 212 0.0 1.0 0.02 0.02 0.02 92 1014.4
20260831043028 61 204 0.0 0.0 0.01 0.01 0.01 90 1014.4